Lid_Strength_Index
9 12 14 12 11 11 11 13 14 12 10 12 12 13 12 10 11 10 10 10 9 8 6 6 6 5 6 6 6 4 2 1 1 1 1 1 1 1 1 -0 0 0 1 1
11 13 11 10 10 11 12 14 14 11 10 12 13 13 11 9 10 9 9 8 9 8 8 7 7 7 7 6 6 6 4 2 1 1 1 0 1 0 0 -0 -0 -0 0 0
13 13 9 10 12 12 12 13 13 13 11 12 14 16 14 12 11 10 9 8 8 9 8 8 8 8 8 8 7 6 5 3 2 1 1 1 1 2 1 1 0 0 0 0
12 10 10 11 12 11 15 11 11 12 14 17 13 20 16 13 13 12 10 11 10 10 9 9 9 9 9 8 7 7 6 5 2 1 1 2 2 3 1 1 0 0 0 0
13 12 11 12 12 10 13 10 11 12 14 15 16 17 17 15 14 12 11 11 11 11 10 10 10 9 9 9 8 6 6 5 2 2 1 2 2 1 1 1 1 1 0 0
12 10 11 10 10 9 9 11 11 12 14 19 17 17 19 16 14 13 12 11 10 11 11 10 10 9 9 9 9 8 8 8 6 2 2 2 2 2 2 2 2 2 1 1
13 12 11 10 11 10 10 13 18 20 19 21 17 18 17 14 13 13 12 11 11 10 11 10 9 9 9 9 9 8 8 9 8 8 8 7 5 3 2 2 2 2 2 2
17 18 12 10 11 13 12 13 19 24 22 21 17 19 17 13 12 11 11 11 11 10 11 10 9 10 10 10 10 10 9 10 10 10 9 9 8 8 7 7 6 4 2 1
17 17 12 11 10 10 13 15 13 17 19 20 19 18 15 13 13 13 12 12 11 11 11 10 10 11 11 11 11 11 11 11 11 11 10 10 9 9 9 8 7 7 7 6
13 16 13 11 10 10 12 11 16 15 23 24 21 19 18 15 14 13 12 12 12 12 11 11 11 12 12 12 12 12 12 12 12 11 11 10 10 9 9 8 8 8 8 7
11 13 14 12 13 13 13 14 13 13 16 20 23 20 16 14 13 13 12 12 12 11 10 11 12 12 12 12 13 13 13 12 12 12 11 11 11 11 10 10 10 9 9 9
10 13 16 14 12 10 10 12 13 17 19 17 18 18 14 13 13 12 11 11 11 9 9 11 11 12 12 13 13 13 13 13 13 12 12 12 12 11 11 11 11 10 10 9
9 13 17 16 13 13 13 12 11 12 14 17 19 18 13 13 12 11 11 10 11 10 11 11 11 12 12 12 13 13 13 13 13 13 13 13 12 12 12 12 11 11 10 10
7 12 14 16 15 12 14 13 11 13 16 15 15 16 13 13 12 11 10 10 10 10 11 11 11 11 12 12 13 13 13 13 13 13 13 13 13 12 12 12 11 11 10 10
9 14 13 12 12 12 12 13 12 13 13 15 13 13 12 10 10 10 9 9 9 9 10 10 11 11 12 12 13 13 13 13 13 13 13 13 13 12 11 11 11 10 10 10
10 15 14 18 12 12 14 13 12 12 12 12 12 12 9 8 10 10 9 9 9 8 9 10 11 11 12 12 13 13 13 13 13 13 13 13 13 12 12 11 10 10 10 10
11 12 14 16 13 14 16 13 12 12 11 11 14 11 8 9 10 9 9 9 9 9 8 9 9 10 12 13 13 13 13 13 13 13 13 13 13 13 12 11 11 10 10 10
12 16 15 16 18 20 12 10 9 11 10 9 9 9 8 7 7 8 8 7 7 7 7 8 10 11 12 13 14 13 13 13 13 14 14 14 14 14 13 13 12 11 11 10
9 12 18 17 17 14 12 12 12 12 12 9 9 8 8 7 9 8 8 6 6 6 6 8 10 12 13 14 14 13 13 14 15 15 15 15 15 15 14 14 13 12 11 11
11 10 13 17 18 20 13 10 10 10 14 9 8 8 8 8 11 8 6 7 8 10 11 12 13 13 14 15 14 14 14 16 16 16 16 16 15 15 15 15 14 13 12 11
13 13 15 15 17 15 10 11 9 15 13 9 8 8 8 9 7 7 10 12 12 13 14 14 14 15 16 15 14 15 16 17 17 17 17 16 16 16 15 15 15 14 13 12
14 15 15 14 17 18 10 11 12 9 8 9 10 8 8 8 8 10 12 13 14 14 14 15 16 17 17 16 15 17 18 18 18 18 18 18 17 17 16 17 16 15 13 12
16 12 14 13 13 10 10 9 8 8 8 9 10 9 9 10 10 12 14 15 15 15 15 15 17 19 19 18 18 19 20 20 20 20 20 19 18 17 18 17 17 16 13 13
12 10 12 12 10 9 10 9 9 9 8 7 8 9 10 10 12 13 14 15 16 16 17 17 18 19 21 21 20 21 21 21 23 22 21 20 20 20 19 18 17 17 15 15
12 11 12 13 10 10 9 9 9 9 9 9 10 10 10 11 13 13 14 15 16 17 18 18 19 20 22 22 22 23 24 24 24 23 22 22 21 21 20 19 19 17 16 15
11 11 11 12 9 9 9 8 8 9 9 9 10 12 13 12 13 14 15 16 18 19 20 21 22 23 24 24 25 26 28 28 27 24 23 23 23 22 21 21 20 18 16 15